GSIXT EGBO-EGBO

Flight info

Callsign GSIXT
Flight time 0h 34m
Altitude 2000
Route LOCAL
Aircraft P28A/L-SBDGRY/G

Departure

Time 2026-05-07 19:31
Airport Wolverhampton Halfpenny Green Airport (EGBO)

Arrival

Time 2026-05-07 20:06
Airport Wolverhampton Halfpenny Green Airport (EGBO)
Time Latitude Longitude Altitude Speed Heading
2026-05-07 19:26 52.51551 -2.26298 269 ft 0 kts 96°
2026-05-07 19:28 52.51550 -2.26291 269 ft 3 kts 104°
2026-05-07 19:28 52.51520 -2.26281 269 ft 4 kts 233°
2026-05-07 19:28 52.51525 -2.26382 268 ft 17 kts 277°
2026-05-07 19:28 52.51540 -2.26609 264 ft 19 kts 274°
2026-05-07 19:29 52.51577 -2.26715 259 ft 12 kts
2026-05-07 19:29 52.51650 -2.26639 262 ft 17 kts 34°
2026-05-07 19:29 52.51789 -2.26470 268 ft 31 kts 37°
2026-05-07 19:29 52.51947 -2.26275 278 ft 25 kts 38°
2026-05-07 19:30 52.52026 -2.26170 281 ft 7 kts 96°
2026-05-07 19:30 52.51996 -2.26143 282 ft 11 kts 155°
2026-05-07 19:30 52.51827 -2.26017 279 ft 49 kts 156°
2026-05-07 19:30 52.51408 -2.25702 363 ft 72 kts 155°
2026-05-07 19:31 52.50951 -2.25342 560 ft 73 kts 155°
2026-05-07 19:31 52.50501 -2.24975 752 ft 73 kts 155°
2026-05-07 19:31 52.50055 -2.24603 982 ft 71 kts 152°
2026-05-07 19:31 52.49639 -2.24241 1209 ft 67 kts 154°
2026-05-07 19:32 52.49511 -2.23518 1290 ft 88 kts 70°
2026-05-07 19:32 52.49802 -2.22604 1366 ft 93 kts 68°
2026-05-07 19:32 52.50095 -2.21639 1386 ft 96 kts 68°
2026-05-07 19:32 52.50419 -2.20672 1421 ft 98 kts 53°
2026-05-07 19:33 52.51058 -2.20441 1427 ft 99 kts 344°
2026-05-07 19:33 52.51721 -2.20832 1401 ft 102 kts 333°
2026-05-07 19:33 52.52389 -2.21322 1434 ft 108 kts 333°
2026-05-07 19:33 52.53065 -2.21833 1360 ft 106 kts 331°
2026-05-07 19:34 52.53731 -2.22250 1302 ft 102 kts 340°
2026-05-07 19:34 52.54388 -2.22582 1290 ft 98 kts 339°
2026-05-07 19:34 52.55023 -2.22941 1271 ft 96 kts 338°
2026-05-07 19:34 52.55566 -2.23506 1241 ft 91 kts 288°
2026-05-07 19:35 52.55515 -2.24471 1204 ft 82 kts 253°
2026-05-07 19:35 52.55385 -2.25324 1125 ft 75 kts 250°
2026-05-07 19:35 52.55224 -2.26123 1068 ft 72 kts 245°
2026-05-07 19:35 52.55033 -2.26862 995 ft 70 kts 238°
2026-05-07 19:36 52.54799 -2.27528 953 ft 66 kts 236°
2026-05-07 19:36 52.54475 -2.28055 866 ft 70 kts 195°
2026-05-07 19:36 52.54027 -2.27725 842 ft 75 kts 147°
2026-05-07 19:36 52.53605 -2.27302 798 ft 66 kts 158°
2026-05-07 19:37 52.53201 -2.27014 697 ft 63 kts 158°
2026-05-07 19:37 52.52797 -2.26719 569 ft 63 kts 155°
2026-05-07 19:37 52.52398 -2.26427 428 ft 62 kts 158°
2026-05-07 19:37 52.52007 -2.26146 294 ft 59 kts 159°
2026-05-07 19:38 52.51662 -2.25892 288 ft 61 kts 155°
2026-05-07 19:38 52.51278 -2.25610 437 ft 60 kts 156°
2026-05-07 19:38 52.50891 -2.25340 634 ft 60 kts 161°
2026-05-07 19:38 52.50498 -2.25052 816 ft 61 kts 153°
2026-05-07 19:39 52.50101 -2.24767 1032 ft 60 kts 154°
2026-05-07 19:39 52.49720 -2.24471 1215 ft 61 kts 156°
2026-05-07 19:39 52.49340 -2.24105 1253 ft 68 kts 129°
2026-05-07 19:39 52.49457 -2.23310 1250 ft 79 kts 66°
2026-05-07 19:40 52.49680 -2.22479 1254 ft 82 kts 71°
2026-05-07 19:40 52.49930 -2.21619 1259 ft 84 kts 68°
2026-05-07 19:40 52.50169 -2.20758 1269 ft 86 kts 66°
2026-05-07 19:40 52.50727 -2.20491 1276 ft 92 kts 340°
2026-05-07 19:41 52.51333 -2.20761 1271 ft 90 kts 341°
2026-05-07 19:41 52.51943 -2.21075 1244 ft 92 kts 339°
2026-05-07 19:41 52.52543 -2.21434 1243 ft 92 kts 338°
2026-05-07 19:41 52.53151 -2.21783 1231 ft 94 kts 338°
2026-05-07 19:42 52.53771 -2.22123 1195 ft 94 kts 338°
2026-05-07 19:42 52.54392 -2.22432 1190 ft 92 kts 339°
2026-05-07 19:42 52.54998 -2.22743 1196 ft 93 kts 341°
2026-05-07 19:42 52.55607 -2.23083 1221 ft 91 kts 330°
2026-05-07 19:43 52.55804 -2.23938 1227 ft 83 kts 253°
2026-05-07 19:43 52.55688 -2.24852 1255 ft 80 kts 250°
2026-05-07 19:43 52.55521 -2.25726 1240 ft 80 kts 246°
2026-05-07 19:43 52.55346 -2.26613 1223 ft 83 kts 249°
2026-05-07 19:44 52.55152 -2.27500 1201 ft 82 kts 240°
2026-05-07 19:44 52.54670 -2.27853 1116 ft 80 kts 174°
2026-05-07 19:44 52.54138 -2.27651 987 ft 77 kts 163°
2026-05-07 19:44 52.53653 -2.27340 905 ft 75 kts 161°
2026-05-07 19:45 52.53203 -2.26998 780 ft 71 kts 158°
2026-05-07 19:45 52.52759 -2.26684 628 ft 67 kts 159°
2026-05-07 19:45 52.52333 -2.26379 425 ft 67 kts 154°
2026-05-07 19:45 52.51911 -2.26076 287 ft 61 kts 159°
2026-05-07 19:46 52.51535 -2.25795 335 ft 64 kts 156°
2026-05-07 19:46 52.51126 -2.25475 514 ft 66 kts 156°
2026-05-07 19:46 52.50702 -2.25184 726 ft 66 kts 159°
2026-05-07 19:46 52.50286 -2.24906 949 ft 64 kts 157°
2026-05-07 19:47 52.49860 -2.24755 1131 ft 65 kts 195°
2026-05-07 19:47 52.49659 -2.25431 1302 ft 80 kts 273°
2026-05-07 19:47 52.49859 -2.26306 1542 ft 81 kts 287°
2026-05-07 19:47 52.50128 -2.27134 1745 ft 89 kts 304°
2026-05-07 19:48 52.50564 -2.27914 1914 ft 97 kts 311°
2026-05-07 19:48 52.50965 -2.28793 2059 ft 96 kts 287°
2026-05-07 19:48 52.51081 -2.29838 2063 ft 91 kts 263°
2026-05-07 19:48 52.50991 -2.30849 2069 ft 90 kts 251°
2026-05-07 19:49 52.50854 -2.31857 2055 ft 93 kts 252°
2026-05-07 19:49 52.50735 -2.32918 1986 ft 99 kts 254°
2026-05-07 19:49 52.50641 -2.34059 1914 ft 103 kts 257°
2026-05-07 19:49 52.50559 -2.35245 1850 ft 103 kts 256°
2026-05-07 19:50 52.50426 -2.36316 2114 ft 87 kts 252°
2026-05-07 19:50 52.50271 -2.37276 2302 ft 89 kts 247°
2026-05-07 19:50 52.50106 -2.38208 2553 ft 85 kts 246°
2026-05-07 19:50 52.49900 -2.39149 2707 ft 89 kts 246°
2026-05-07 19:51 52.49594 -2.40025 2743 ft 85 kts 211°
2026-05-07 19:51 52.49111 -2.39676 2747 ft 94 kts 113°
2026-05-07 19:51 52.49412 -2.38800 2727 ft 102 kts 13°
2026-05-07 19:51 52.49935 -2.39287 2736 ft 90 kts 275°
2026-05-07 19:52 52.49612 -2.40014 2712 ft 86 kts 209°
2026-05-07 19:52 52.49072 -2.40469 2658 ft 89 kts 206°
2026-05-07 19:52 52.48493 -2.40775 2670 ft 86 kts 197°
2026-05-07 19:52 52.48228 -2.41531 2657 ft 94 kts 288°
2026-05-07 19:53 52.48829 -2.41795 2647 ft 105 kts 34°
2026-05-07 19:53 52.48882 -2.40821 2644 ft 90 kts 146°
2026-05-07 19:53 52.48393 -2.41027 2627 ft 88 kts 249°
2026-05-07 19:53 52.48424 -2.42033 2653 ft 87 kts 258°
2026-05-07 19:54 52.48062 -2.42723 2669 ft 84 kts 197°
2026-05-07 19:54 52.47513 -2.42457 2669 ft 90 kts 138°
2026-05-07 19:54 52.47368 -2.41438 2674 ft 100 kts 81°
2026-05-07 19:54 52.47837 -2.40596 2636 ft 107 kts 17°
2026-05-07 19:55 52.48529 -2.40786 2617 ft 101 kts 317°
2026-05-07 19:55 52.48761 -2.41742 2631 ft 89 kts 254°
2026-05-07 19:55 52.48357 -2.42446 2625 ft 87 kts 211°
2026-05-07 19:55 52.47806 -2.42846 2620 ft 87 kts 176°
2026-05-07 19:56 52.47510 -2.42068 2587 ft 103 kts 78°
2026-05-07 19:56 52.47896 -2.41021 2550 ft 107 kts 58°
2026-05-07 19:56 52.48314 -2.40029 2538 ft 107 kts 57°
2026-05-07 19:56 52.48756 -2.39023 2467 ft 110 kts 57°
2026-05-07 19:57 52.49245 -2.38046 2364 ft 112 kts 50°
2026-05-07 19:57 52.49751 -2.37006 2313 ft 122 kts 59°
2026-05-07 19:57 52.50219 -2.35829 2384 ft 124 kts 62°
2026-05-07 19:57 52.50654 -2.34570 2298 ft 125 kts 68°
2026-05-07 19:58 52.50938 -2.33279 2235 ft 119 kts 82°
2026-05-07 19:58 52.51086 -2.31954 2214 ft 115 kts 85°
2026-05-07 19:58 52.51223 -2.30692 2184 ft 111 kts 86°
2026-05-07 19:58 52.51334 -2.29458 2132 ft 108 kts 92°
2026-05-07 19:59 52.51352 -2.28261 2129 ft 103 kts 95°
2026-05-07 19:59 52.51344 -2.27072 2078 ft 105 kts 98°
2026-05-07 19:59 52.51311 -2.25885 2047 ft 104 kts 99°
2026-05-07 19:59 52.51351 -2.24703 2020 ft 105 kts 89°
2026-05-07 20:00 52.51838 -2.23895 2004 ft 110 kts
2026-05-07 20:00 52.52478 -2.24453 1926 ft 107 kts 297°
2026-05-07 20:00 52.52597 -2.25575 1829 ft 101 kts 253°
2026-05-07 20:00 52.52344 -2.26608 1798 ft 94 kts 239°
2026-05-07 20:01 52.52050 -2.27524 1775 ft 88 kts 237°
2026-05-07 20:01 52.51762 -2.28414 1771 ft 87 kts 230°
2026-05-07 20:01 52.51227 -2.28486 1745 ft 88 kts 161°
2026-05-07 20:01 52.50656 -2.28048 1726 ft 89 kts 158°
2026-05-07 20:02 52.50229 -2.27348 1712 ft 99 kts 103°
2026-05-07 20:02 52.50519 -2.26283 1688 ft 107 kts 69°
2026-05-07 20:02 52.50751 -2.25179 1574 ft 99 kts 80°
2026-05-07 20:02 52.50967 -2.24127 1440 ft 97 kts 69°
2026-05-07 20:03 52.51396 -2.23238 1352 ft 109 kts 29°
2026-05-07 20:03 52.52113 -2.23312 1324 ft 108 kts 334°
2026-05-07 20:03 52.52804 -2.23751 1319 ft 106 kts 338°
2026-05-07 20:03 52.53498 -2.24136 1290 ft 102 kts 340°
2026-05-07 20:04 52.54174 -2.24515 1289 ft 104 kts 340°
2026-05-07 20:04 52.54584 -2.25330 1317 ft 94 kts 268°
2026-05-07 20:04 52.54421 -2.26333 1326 ft 92 kts 248°
2026-05-07 20:04 52.54179 -2.27185 1265 ft 71 kts 215°
2026-05-07 20:05 52.53681 -2.27214 1072 ft 77 kts 171°
2026-05-07 20:05 52.53169 -2.26945 875 ft 79 kts 160°
2026-05-07 20:05 52.52682 -2.26641 670 ft 70 kts 159°
2026-05-07 20:05 52.52241 -2.26318 348 ft 68 kts 159°
2026-05-07 20:06 52.51888 -2.26060 281 ft 35 kts 156°
2026-05-07 20:06 52.51709 -2.25931 277 ft 17 kts 155°
2026-05-07 20:06 52.51669 -2.25990 275 ft 11 kts 269°
2026-05-07 20:06 52.51677 -2.26130 271 ft 14 kts 275°
2026-05-07 20:07 52.51686 -2.26271 268 ft 12 kts 279°
2026-05-07 20:07 52.51657 -2.26296 267 ft 7 kts 173°
2026-05-07 20:07 52.51587 -2.26264 269 ft 9 kts 147°
2026-05-07 20:07 52.51570 -2.26253 269 ft 0 kts 186°